Location: Kervinic
(48.4279°N, 4.7373°W)
Time: 02:03:14
(UTC+00:00)

STARLINK-1230 - Pass Details

Date: 09 April 2020
Orbit: 548 x 551 km, 53.0° (Epoch: 03 June)

Event Time Altitude Azimuth Distance (km) Brightness Sun altitude
Rises 20:46:36 0° 295° (WNW) 2,732 8.9 -16.7°
Reaches altitude 10° 20:48:51 10° 295° (WNW) 1,835 7.6 -17.0°
Maximum altitude 20:53:01 82° 209° (SSW) 564 3.6 -17.6°
Enters shadow 20:54:24 41° 126° (SE) 809 3.9 -17.8°
